CW9887 Weather Reports


time (UTC)temp
C
wind
direction
speed
KPH
gust
KPH
rain 1hr
cm
rain 24hr
cm
rain mn
cm
humidity
%
barometer
mb
20190423015745 12 13 6.4 0.0 0.00 0.00 0.25 92 1016.2
20190423014750 12 41 4.8 0.0 0.00 0.00 0.25 94 1016.4
20190423013750 12 40 6.4 0.0 0.00 0.00 0.25 94 1016.6
20190423012756 12 51 6.4 0.0 0.00 0.00 0.25 95 1016.6
20190423011759 12 65 6.4 0.0 0.00 0.00 0.25 94 1016.8
20190423011519 12 17 6.4 0.0 0.00 0.00 0.23 94 1016.9
20190423010740 12 61 4.8 0.0 0.00 0.00 0.20 94 1016.8
20190423005742 12 10 6.4 0.0 0.00 0.00 0.20 95 1016.7
20190423004747 12 35 6.4 0.0 0.00 0.00 0.20 95 1016.6
20190423003750 12 17 8.0 0.0 0.00 0.00 0.20 94 1016.8
20190423002758 13 89 4.8 0.0 0.00 0.00 0.18 94 1016.7
20190423001746 13 38 4.8 0.0 0.00 0.00 0.18 94 1016.6
20190423000744 13 66 4.8 0.0 0.00 0.00 0.18 94 1016.6
20190422235813 13 22 4.8 0.0 0.00 0.00 0.18 94 1016.7
20190422234758 13 22 4.8 0.0 0.00 0.00 0.18 94 1016.7
20190422233755 13 51 8.0 0.0 0.00 0.00 0.15 93 1016.7
20190422232759 13 89 8.0 0.0 0.00 0.00 0.10 93 1016.8
20190422230753 13 102 8.0 0.0 0.00 0.00 0.03 92 1016.7
20190422225758 14 106 8.0 0.0 0.00 0.00 0.00 91 1016.6
20190422224758 14 102 9.7 0.0 0.00 0.00 0.00 89 1016.5
20190422223739 15 89 12.9 0.0 0.00 0.00 0.00 86 1016.4
20190422222750 15 98 14.5 0.0 0.00 0.00 0.00 83 1016.4
20190422221753 15 100 11.3 0.0 0.00 0.00 0.00 82 1016.4
20190422220752 16 90 11.3 0.0 0.00 0.00 0.00 79 1016.3
20190422215757 16 57 14.5 0.0 0.00 0.00 0.00 76 1016.1
20190422214757 16 26 11.3 0.0 0.00 0.00 0.00 75 1016.0
20190422214508 16 84 11.3 0.0 0.00 0.00 0.00 74 1015.9
20190422213740 17 86 11.3 0.0 0.00 0.00 0.00 74 1016.0
20190422212742 17 76 11.3 0.0 0.00 0.00 0.00 74 1015.8
20190422211748 17 73 11.3 0.0 0.00 0.00 0.00 73 1015.9
20190422210751 17 98 11.3 0.0 0.00 0.00 0.00 74 1015.9
20190422205756 17 84 11.3 0.0 0.00 0.00 0.00 74 1016.0
20190422204800 17 102 12.9 0.0 0.00 0.00 0.00 74 1016.1
20190422204506 17 93 12.9 0.0 0.00 0.00 0.00 74 1016.1
20190422203742 17 115 12.9 0.0 0.00 0.00 0.00 73 1016.2
20190422202742 17 76 12.9 0.0 0.00 0.00 0.00 72 1016.3
20190422201744 18 69 11.3 0.0 0.00 0.00 0.00 70 1016.5
20190422200805 18 88 14.5 0.0 0.00 0.00 0.00 69 1016.6
20190422195741 18 71 17.7 0.0 0.00 0.00 0.00 67 1016.8
20190422194748 18 84 14.5 0.0 0.00 0.00 0.00 67 1016.7
20190422193748 18 27 12.9 0.0 0.00 0.00 0.00 67 1016.8
20190422192752 18 82 16.1 0.0 0.00 0.00 0.00 65 1016.9
20190422191754 18 73 19.3 0.0 0.00 0.00 0.00 65 1016.9
20190422191508 18 109 16.1 0.0 0.00 0.00 0.00 64 1016.7
20190422190757 20 50 12.9 0.0 0.00 0.00 0.00 62 1016.9
20190422185739 19 36 14.5 0.0 0.00 0.00 0.00 64 1016.8
20190422184745 19 46 16.1 0.0 0.00 0.00 0.00 64 1016.8
20190422183751 19 88 14.5 0.0 0.00 0.00 0.00 65 1017.0
20190422182755 19 41 12.9 0.0 0.00 0.00 0.00 66 1017.3
20190422181758 19 81 12.9 0.0 0.00 0.00 0.00 65 1017.5
20190422180757 19 80 16.1 0.0 0.00 0.00 0.00 67 1017.6
20190422180018 18 69 14.5 0.0 0.00 0.00 0.00 67 1017.4
20190422175739 19 65 14.5 0.0 0.00 0.00 0.00 66 1017.6
20190422174745 19 36 17.7 0.0 0.00 0.00 0.00 66 1017.6
20190422173745 18 76 16.1 0.0 0.00 0.00 0.00 69 1017.6
20190422172746 18 95 14.5 0.0 0.00 0.00 0.00 70 1017.7
20190422171750 18 67 12.9 0.0 0.00 0.00 0.00 71 1017.6
20190422170754 18 32 12.9 0.0 0.00 0.00 0.00 70 1017.8
20190422165737 18 41 14.5 0.0 0.00 0.00 0.00 70 1018.0
20190422164747 18 51 14.5 0.0 0.00 0.00 0.00 73 1018.2
20190422163747 17 104 17.7 0.0 0.00 0.00 0.00 74 1018.2
20190422162751 17 55 12.9 0.0 0.00 0.00 0.00 74 1018.4
20190422161754 17 68 14.5 0.0 0.00 0.00 0.00 75 1018.5
20190422155756 18 71 14.5 0.0 0.00 0.00 0.00 72 1018.7
20190422154738 18 59 14.5 0.0 0.00 0.00 0.00 74 1018.7
20190422153742 18 31 14.5 0.0 0.00 0.00 0.00 75 1018.8
20190422152749 17 59 16.1 0.0 0.00 0.00 0.00 74 1018.9
20190422151755 17 87 16.1 0.0 0.00 0.00 0.00 76 1018.9
20190422151507 17 65 14.5 0.0 0.00 0.00 0.00 75 1018.9
20190422150759 17 97 14.5 0.0 0.00 0.00 0.00 75 1019.1
20190422145745 17 81 12.9 0.0 0.00 0.00 0.00 75 1019.1
20190422144750 17 84 11.3 0.0 0.00 0.00 0.00 76 1019.2
20190422143750 17 79 14.5 0.0 0.00 0.00 0.00 76 1019.1
20190422142754 16 90 12.9 0.0 0.00 0.00 0.00 77 1019.3
20190422141757 16 51 14.5 0.0 0.00 0.00 0.00 76 1019.5
20190422141507 16 88 14.5 0.0 0.00 0.00 0.00 76 1019.3
20190422140756 16 57 14.5 0.0 0.00 0.00 0.00 76 1019.5
20190422135736 16 82 17.7 0.0 0.00 0.00 0.00 75 1019.3
20190422134742 16 94 14.5 0.0 0.00 0.00 0.00 75 1019.3
20190422133744 16 86 14.5 0.0 0.00 0.00 0.00 75 1019.2
20190422132746 16 96 9.7 0.0 0.00 0.00 0.00 80 1019.2
20190422131752 16 98 6.4 0.0 0.00 0.00 0.00 81 1019.4
20190422130754 15 21 6.4 0.0 0.00 0.00 0.00 83 1019.5
20190422125742 15 96 3.2 0.0 0.00 0.00 0.00 86 1019.6
20190422124747 14 161 4.8 0.0 0.00 0.00 0.00 85 1019.6
20190422123747 14 117 4.8 0.0 0.00 0.00 0.00 85 1019.6
20190422122750 14 110 4.8 0.0 0.00 0.00 0.00 85 1019.6
20190422121752 14 82 3.2 0.0 0.00 0.00 0.00 85 1019.5
20190422120751 13 126 3.2 0.0 0.00 0.00 0.00 87 1019.6
20190422115757 13 24 4.8 0.0 0.00 0.00 0.00 86 1019.5
20190422114741 12 65 6.4 0.0 0.00 0.00 0.00 88 1019.6
20190422113744 12 27 4.8 0.0 0.00 0.00 0.00 89 1019.5
20190422112750 11 55 4.8 0.0 0.00 0.00 0.00 91 1019.5
20190422111754 11 27 4.8 0.0 0.00 0.00 0.00 91 1019.5
20190422111510 10 24 4.8 0.0 0.00 0.00 0.00 92 1019.5
20190422110800 10 53 6.4 0.0 0.00 0.00 0.00 92 1019.4
20190422105740 11 44 3.2 0.0 0.00 0.00 0.00 92 1019.3
20190422104744 11 19 3.2 0.0 0.00 0.00 0.00 93 1019.2
20190422103744 11 10 4.8 0.0 0.00 0.00 0.00 94 1019.2
20190422102743 11 9 3.2 0.0 0.00 0.00 0.00 94 1019.2
20190422101749 10 17 3.2 0.0 0.00 0.00 0.00 93 1019.1
20190422100749 10 319 3.2 0.0 0.00 0.00 0.00 93 1019.1
20190422095756 10 20 4.8 0.0 0.00 0.00 0.00 93 1019.0
20190422094739 10 26 6.4 0.0 0.00 0.00 0.00 94 1018.9
20190422093743 10 55 6.4 0.0 0.00 0.00 0.00 94 1018.7
20190422092751 10 48 8.0 0.0 0.00 0.00 0.00 94 1018.5
20190422090758 10 355 4.8 0.0 0.00 0.00 0.00 96 1018.6
20190422085739 10 22 3.2 0.0 0.00 0.00 0.00 96 1018.4
20190422084744 10 24 1.6 0.0 0.00 0.00 0.00 96 1018.5
20190422083744 10 355 1.6 0.0 0.00 0.00 0.00 96 1018.6
20190422082750 10 5 0.0 0.0 0.00 0.00 0.00 96 1018.6
20190422081749 10 5 1.6 0.0 0.00 0.00 0.00 96 1018.7
20190422080753 10 302 1.6 0.0 0.00 0.00 0.00 97 1018.7
20190422075736 10 300 1.6 0.0 0.00 0.00 0.00 96 1018.7
20190422074743 10 283 1.6 0.0 0.00 0.00 0.00 96 1018.7
20190422073747 10 283 0.0 0.0 0.00 0.00 0.00 96 1018.7
20190422072756 10 283 1.6 0.0 0.00 0.00 0.00 96 1018.6
20190422071757 11 282 1.6 0.0 0.00 0.00 0.00 95 1018.6
20190422070756 11 332 0.0 0.0 0.00 0.00 0.00 95 1018.4
20190422065758 11 332 1.6 0.0 0.00 0.00 0.00 96 1018.3
20190422064800 11 32 3.2 0.0 0.00 0.00 0.00 96 1018.4
20190422064518 11 53 3.2 0.0 0.00 0.00 0.00 95 1018.4
20190422063741 11 73 1.6 0.0 0.00 0.00 0.00 96 1018.5
20190422062908 11 24 1.6 0.0 0.00 0.00 0.00 95 1018.6
20190422061747 11 325 1.6 0.0 0.00 0.00 0.00 95 1018.5
20190422060750 11 304 1.6 0.0 0.00 0.00 0.00 94 1018.4
20190422055755 11 9 0.0 0.0 0.00 0.00 0.00 95 1018.5
20190422054741 11 287 1.6 0.0 0.00 0.00 0.00 94 1018.6
20190422053747 12 286 1.6 0.0 0.00 0.00 0.00 93 1018.7
20190422052751 12 287 1.6 0.0 0.00 0.00 0.00 93 1018.7
20190422051753 12 287 0.0 0.0 0.00 0.00 0.00 93 1018.7
20190422050753 12 287 0.0 0.0 0.00 0.00 0.00 92 1018.9
20190422045757 12 287 0.0 0.0 0.00 0.00 0.00 91 1018.7
20190422044800 12 287 0.0 0.0 0.00 0.00 0.00 91 1018.7
20190422044508 12 287 0.0 0.0 0.00 0.00 0.00 91 1018.5
20190422043739 12 287 0.0 0.0 0.00 0.00 0.00 91 1018.8
20190422042742 12 287 0.0 0.0 0.00 0.00 0.00 91 1018.8
20190422041750 12 287 0.0 0.0 0.00 0.00 0.00 90 1018.7
20190422040823 13 287 0.0 0.0 0.00 0.00 0.00 89 1018.8
20190422034750 13 281 1.6 0.0 0.00 0.00 0.36 89 1018.7
20190422033749 13 236 1.6 0.0 0.00 0.00 0.36 89 1018.8
20190422032753 13 236 0.0 0.0 0.00 0.00 0.36 89 1018.7
20190422031755 13 236 0.0 0.0 0.00 0.00 0.36 89 1018.7
20190422031508 13 236 0.0 0.0 0.00 0.00 0.36 89 1018.5
20190422030757 13 236 0.0 0.0 0.00 0.00 0.36 88 1018.7
20190422025738 13 236 0.0 0.0 0.00 0.00 0.36 88 1018.7
20190422024746 13 236 0.0 0.0 0.00 0.00 0.36 88 1018.7
20190422023747 13 236 0.0 0.0 0.00 0.00 0.36 87 1018.8
20190422022754 14 236 0.0 0.0 0.00 0.00 0.36 87 1018.8
20190422021738 14 232 1.6 0.0 0.00 0.00 0.36 86 1018.5
20190422020747 14 286 0.0 0.0 0.00 0.00 0.36 86 1018.6